Le nostre stazioni meteo in Italia

Pubblicità
Il mio iltempo24.it
Latina, Italia (16243): Temperatura & dewpoint: 13.04.2019 17:00:00 - 19.04.2019 17:00:00 (CEST)Latina, Italia (16243): velocità del vento: 13.04.2019 17:00:00 - 19.04.2019 17:00:00 (CEST)Latina, Italia (16243): direzione del vento: 13.04.2019 17:00:00 - 19.04.2019 17:00:00 (CEST)Latina, Italia (16243): reduced air pressure: 13.04.2019 17:00:00 - 19.04.2019 17:00:00 (CEST)Latina, Italia (16243): visibility: 13.04.2019 17:00:00 - 19.04.2019 17:00:00 (CEST)
Data & Tempo tt [°C] td [°C] ff [km/h] ff [kn] dd ppp [hPa] vv [km]
19.04.2019 17:00:00 19,8 3,1 9 5 OSO 1025,5 25
19.04.2019 16:00:00 21,0 4,0 15 8 S - 10
19.04.2019 15:00:00 21,0 5,0 16 9 SSO - 10
19.04.2019 14:00:00 21,0 5,4 16 9 SSO 1026,1 25
19.04.2019 13:00:00 21,0 4,0 15 8 SSO - 10
19.04.2019 12:00:00 21,0 4,0 4 2 - - 10
19.04.2019 11:00:00 20,0 4,5 4 2 ESE 1026,1 20
19.04.2019 10:00:00 17,0 7,0 4 2 ONO - 10
19.04.2019 09:00:00 15,0 8,0 0 0 N - 10
19.04.2019 08:00:00 11,2 7,7 4 2 SSO 1025,4 15
19.04.2019 07:00:00 9,0 5,0 0 0 - - 10
19.04.2019 06:00:00 - - - - - - -
19.04.2019 05:00:00 - - - - - - -
19.04.2019 04:00:00 - - - - - - -
19.04.2019 03:00:00 - - - - - - -
19.04.2019 02:00:00 - - - - - - -
19.04.2019 01:00:00 - - - - - - -
19.04.2019 00:00:00 - - - - - - -
18.04.2019 23:00:00 - - - - - - -
18.04.2019 22:00:00 - - - - - - -
18.04.2019 21:00:00 - - - - - - -
18.04.2019 20:00:00 17,4 2,2 5 3 NO 1021,4 15
18.04.2019 19:00:00 18,0 3,0 8 4 SO - 10
18.04.2019 18:00:00 19,0 4,0 13 7 OSO - 10
18.04.2019 17:00:00 19,8 5,1 8 4 O 1020,9 15
18.04.2019 16:00:00 20,0 6,0 13 7 SSO - 10
18.04.2019 15:00:00 20,0 6,0 15 8 SO - 10
18.04.2019 14:00:00 20,0 6,0 15 8 SSO 1021,3 20
18.04.2019 13:00:00 20,0 7,0 13 7 SSO - 10
18.04.2019 12:00:00 20,0 8,0 5 3 - - 10
18.04.2019 11:00:00 18,2 7,9 5 3 SSE 1021,3 15
18.04.2019 10:00:00 16,0 11,0 4 2 - - 10
18.04.2019 09:00:00 14,0 11,0 0 0 N - 10
18.04.2019 08:00:00 10,2 8,0 0 0 N 1021,1 11
18.04.2019 07:00:00 8,0 6,0 4 2 - - 10
18.04.2019 06:00:00 - - - - - - -
18.04.2019 05:00:00 - - - - - - -
18.04.2019 04:00:00 - - - - - - -
18.04.2019 03:00:00 - - - - - - -
18.04.2019 02:00:00 - - - - - - -
18.04.2019 01:00:00 - - - - - - -
18.04.2019 00:00:00 - - - - - - -
17.04.2019 23:00:00 - - - - - - -
17.04.2019 22:00:00 - - - - - - -
17.04.2019 21:00:00 - - - - - - -
17.04.2019 20:00:00 14,8 6,6 9 5 O 1019,3 15
17.04.2019 19:00:00 17,0 7,0 13 7 OSO - 10
17.04.2019 18:00:00 17,0 6,0 16 9 O - 10
17.04.2019 17:00:00 18,0 6,2 16 9 O 1018,4 20
17.04.2019 16:00:00 19,0 7,0 16 9 O - 10
17.04.2019 15:00:00 19,0 7,0 16 9 OSO - 10
17.04.2019 14:00:00 20,0 6,4 9 5 OSO 1018,9 18
17.04.2019 13:00:00 19,0 7,0 5 3 S - 10
17.04.2019 12:00:00 19,0 7,0 5 3 E - 10
17.04.2019 11:00:00 17,4 7,5 4 2 N 1019,6 15
17.04.2019 10:00:00 15,0 9,0 4 2 S - 10
17.04.2019 09:00:00 12,0 9,0 4 2 S - 10
17.04.2019 08:00:00 8,2 6,0 0 0 N 1019,4 20
17.04.2019 07:00:00 7,0 5,0 2 1 NNO - 10
17.04.2019 06:00:00 - - - - - - -
17.04.2019 05:00:00 - - - - - - -
17.04.2019 04:00:00 - - - - - - -
17.04.2019 03:00:00 - - - - - - -
17.04.2019 02:00:00 - - - - - - -
17.04.2019 01:00:00 - - - - - - -
17.04.2019 00:00:00 - - - - - - -
16.04.2019 23:00:00 - - - - - - -
16.04.2019 22:00:00 - - - - - - -
16.04.2019 21:00:00 - - - - - - -
16.04.2019 20:00:00 14,6 8,1 11 6 O 1019,3 15
16.04.2019 19:00:00 16,0 7,0 15 8 ONO - 10
16.04.2019 18:00:00 18,0 7,0 15 8 O - 10
16.04.2019 17:00:00 18,0 8,8 15 8 O 1019,0 20
16.04.2019 16:00:00 17,0 8,0 15 8 SO - 10
16.04.2019 15:00:00 18,0 10,0 13 7 SO - 10
16.04.2019 14:00:00 18,0 8,8 11 6 SSO 1019,3 20
16.04.2019 13:00:00 17,0 7,0 9 5 S - 10
16.04.2019 12:00:00 18,0 8,0 11 6 S - 10
16.04.2019 11:00:00 17,6 8,5 8 4 S 1019,3 15
16.04.2019 10:00:00 16,0 11,0 5 3 - - 10
16.04.2019 09:00:00 14,0 10,0 4 2 - - 10
16.04.2019 08:00:00 9,2 7,5 0 0 N 1019,1 11
16.04.2019 07:00:00 7,0 5,0 4 2 - - 10
16.04.2019 06:00:00 - - - - - - -
16.04.2019 05:00:00 - - - - - - -
16.04.2019 04:00:00 - - - - - - -
16.04.2019 03:00:00 - - - - - - -
16.04.2019 02:00:00 - - - - - - -
16.04.2019 01:00:00 - - - - - - -
16.04.2019 00:00:00 - - - - - - -
15.04.2019 23:00:00 - - - - - - -
15.04.2019 22:00:00 - - - - - - -
15.04.2019 21:00:00 - - - - - - -
15.04.2019 20:00:00 14,2 9,4 9 5 SE 1015,4 20
15.04.2019 19:00:00 16,0 10,0 5 3 E - 10
15.04.2019 18:00:00 17,0 12,0 5 3 S - 10
15.04.2019 17:00:00 15,8 11,6 8 4 ESE 1013,9 12
15.04.2019 16:00:00 18,0 9,0 15 8 NNE - 10
15.04.2019 15:00:00 19,0 9,0 15 8 S - 10
15.04.2019 14:00:00 19,6 8,0 16 9 S 1013,2 25
15.04.2019 13:00:00 19,0 9,0 8 4 S - 10
15.04.2019 12:00:00 17,0 9,0 5 3 S - 10
15.04.2019 11:00:00 16,2 8,9 5 3 SSO 1013,1 20
15.04.2019 10:00:00 14,0 8,0 5 3 SE - 10
15.04.2019 09:00:00 12,0 8,0 4 2 E - 10
15.04.2019 08:00:00 7,8 5,9 2 1 ENE 1011,5 20
15.04.2019 07:00:00 5,0 3,0 8 4 NNE - 10
15.04.2019 06:00:00 - - - - - - -
15.04.2019 05:00:00 - - - - - - -
15.04.2019 04:00:00 - - - - - - -
15.04.2019 03:00:00 - - - - - - -
15.04.2019 02:00:00 - - - - - - -
15.04.2019 01:00:00 - - - - - - -
15.04.2019 00:00:00 - - - - - - -
14.04.2019 23:00:00 - - - - - - -
14.04.2019 22:00:00 - - - - - - -
14.04.2019 21:00:00 - - - - - - -
14.04.2019 20:00:00 - - - - - - -
14.04.2019 19:00:00 - - - - - - -
14.04.2019 18:00:00 - - - - - - -
14.04.2019 17:00:00 - - - - - - -
14.04.2019 16:00:00 - - - - - - -
14.04.2019 15:00:00 - - - - - - -
14.04.2019 14:00:00 - - - - - - -
14.04.2019 13:00:00 - - - - - - -
14.04.2019 12:00:00 - - - - - - -
14.04.2019 11:00:00 - - - - - - -
14.04.2019 10:00:00 - - - - - - -
14.04.2019 09:00:00 - - - - - - -
14.04.2019 08:00:00 - - - - - - -
14.04.2019 07:00:00 - - - - - - -
14.04.2019 06:00:00 - - - - - - -
14.04.2019 05:00:00 - - - - - - -
14.04.2019 04:00:00 - - - - - - -
14.04.2019 03:00:00 - - - - - - -
14.04.2019 02:00:00 - - - - - - -
14.04.2019 01:00:00 - - - - - - -
14.04.2019 00:00:00 - - - - - - -
13.04.2019 23:00:00 - - - - - - -
13.04.2019 22:00:00 - - - - - - -
13.04.2019 21:00:00 - - - - - - -
13.04.2019 20:00:00 - - - - - - -
13.04.2019 19:00:00 - - - - - - -
13.04.2019 18:00:00 - - - - - - -
13.04.2019 17:00:00 - - - - - - -

tt = Temperatura
td = dewpoint
ff = velocità del vento
dd = direzione del vento
ppp = reduced air pressure
vv = visibility

Stazioni seguenti

WeatherPro
AMSI
MeteoEarth